DW6794 Weather Reports


Display with metric or nautical units.
time (UTC)temp
F
wind
direction
speed
MPH
gust
MPH
rain 1hr
in
rain 24hr
in
rain mn
in
humidity
%
barometer
mb
20170425233354 66 22 0.0 3.0 0.00 0.00 0.00 75 1003.7
20170425222354 67 197 1.0 5.0 0.00 0.00 0.00 76 1003.7
20170425214354 66 178 0.0 0.0 0.00 0.00 0.00 77 1003.8
20170425211354 66 178 0.0 0.0 0.00 0.00 0.00 78 1003.8
20170425210354 66 178 0.0 6.0 0.00 0.00 0.00 77 1003.8
20170425200354 66 255 0.0 5.0 0.00 0.00 0.00 79 1003.9
20170425192354 66 246 1.0 6.0 0.00 0.00 0.00 80 1004.3
20170425191354 65 245 3.0 8.0 0.00 0.00 0.00 80 1004.3
20170425185354 65 204 1.0 3.0 0.00 0.00 0.00 81 1004.4
20170425171354 61 170 0.0 0.0 0.00 0.00 0.00 84 1005.1
20170425151355 58 275 2.0 5.0 0.00 0.00 0.00 86 1005.4
20170425141355 56 253 2.0 5.0 0.00 0.00 0.00 86 1005.5
20170425132356 55 180 3.0 5.0 0.00 0.00 0.00 87 1005.5
20170425130356 55 178 0.0 0.0 0.00 0.00 0.00 87 1005.5
20170425125356 55 178 0.0 0.0 0.00 0.00 0.00 87 1005.5
20170425123356 54 178 0.0 0.0 0.00 0.00 0.00 87 1005.2
20170425104356 53 151 2.0 6.0 0.00 0.00 0.00 87 1004.0
20170425103356 53 86 0.0 2.0 0.00 0.00 0.00 87 1004.0
20170425102356 53 86 2.0 6.0 0.00 0.00 0.00 87 1003.8
20170425101356 53 84 0.0 0.0 0.00 0.00 0.00 87 1003.7
20170425100356 53 84 0.0 0.0 0.00 0.00 0.00 86 1003.6
20170425092356 53 84 0.0 0.0 0.00 0.00 0.00 86 1003.4
20170425083357 52 84 0.0 0.0 0.00 0.00 0.00 86 1003.0
20170425080359 52 84 0.0 0.0 0.00 0.00 0.00 86 1002.7
20170425075357 52 84 0.0 0.0 0.00 0.00 0.00 86 1002.7
20170425073356 52 84 0.0 0.0 0.00 0.00 0.00 86 1002.8
20170425072356 52 84 0.0 0.0 0.00 0.00 0.00 86 1002.8
20170425064357 52 84 0.0 0.0 0.00 0.00 0.00 86 1002.8
20170425063357 52 84 0.0 0.0 0.00 0.00 0.00 86 1002.8
20170425062357 52 84 0.0 0.0 0.00 0.00 0.00 86 1002.9
20170425053357 53 84 0.0 0.0 0.00 0.01 0.00 85 1003.8
20170425052357 53 84 0.0 0.0 0.00 0.01 0.00 84 1003.8
20170425051357 53 84 0.0 0.0 0.00 0.01 0.00 84 1003.9
20170425050357 53 84 0.0 0.0 0.00 0.01 0.00 84 1004.0
20170425045357 53 84 0.0 0.0 0.00 0.01 0.00 84 1003.9
20170425040400 53 84 0.0 0.0 0.00 0.01 0.00 84 1003.4
20170425035400 54 84 0.0 0.0 0.00 0.01 0.01 84 1003.7
20170425032408 55 84 0.0 3.0 0.00 0.01 0.01 84 1004.4
20170425022357 55 66 5.0 8.0 0.00 0.05 0.01 84 1004.4
20170425011357 57 57 4.0 8.0 0.00 0.13 0.01 81 1004.5